Location: *
(51.4660°N, 0.3360°W)
Time: 05:24:35
(UTC+00:00)

Cosmos 1535 Rocket - Pass Details

Date: 19 September 2019
Orbit: 948 x 1004 km, 83.0° (Epoch: 18 October)

Event Time Altitude Azimuth Distance (km) Brightness Sun altitude
Rises 21:09:57 0° 350° (N) 3,744 8.3 -26.7°
Reaches altitude 10° 21:12:30 10° 352° (N) 2,788 7.5 -27.0°
Maximum altitude 21:18:56 76° 79° (ENE) 1,030 4.4 -27.7°
Enters shadow 21:19:20 73° 115° (ESE) 1,042 4.4 -27.8°
